Location: 相模原市立博物館
(35.5593°N, 139.3931°E)
Time: 05:40:57
(UTC+09:00)

Oscar 11 - Visible Passes

Search period start: 23 January 2022 00:00
Search period end: 02 February 2022 00:00
Orbit: 611 x 625 km, 97.6° (Epoch: 22 January)

Date Brightness Start Highest point End Pass type
(mag) Time Alt. Az. Time Alt. Az. Time Alt. Az.
23 Jan 9.9 03:56:32 10° ENE 03:59:06 15° E 04:01:39 10° SE visible
23 Jan 7.5 05:31:21 10° N 05:35:18 37° WNW 05:39:16 10° SW visible
24 Jan 9.3 04:12:30 10° NE 04:16:01 24° E 04:19:31 10° SSE visible
24 Jan 8.1 05:48:33 10° NNW 05:52:00 24° WNW 05:55:27 10° SW visible
25 Jan 8.4 04:28:53 10° NNE 04:32:54 38° E 04:36:53 10° SSE visible
25 Jan 8.6 06:06:03 10° NNW 06:08:39 16° WNW 06:11:16 10° WSW visible
26 Jan 7.5 04:45:28 10° NNE 04:49:44 61° E 04:53:59 10° S visible
27 Jan 6.9 05:02:13 10° N 05:06:32 82° WNW 05:10:50 10° SSW visible
27 Jan 10.5 17:32:26 10° WSW 17:33:57 12° W 17:35:29 10° WNW visible
28 Jan 10.3 03:45:38 10° ENE 03:46:57 11° E 03:48:15 10° ESE visible
28 Jan 7.1 05:19:07 10° N 05:23:18 51° WNW 05:27:28 10° SSW visible
29 Jan 9.7 04:00:55 10° NE 04:03:53 18° E 04:06:50 10° SE visible
29 Jan 7.7 05:36:11 10° N 05:40:01 32° WNW 05:43:51 10° SW visible
30 Jan 9.0 04:17:04 10° NE 04:20:47 28° E 04:24:30 10° SSE visible
30 Jan 8.2 05:53:27 10° NNW 05:56:42 21° WNW 05:59:57 10° WSW visible
31 Jan 8.1 04:33:30 10° NNE 04:37:39 44° E 04:41:46 10° S visible
31 Jan 8.7 06:11:07 10° NW 06:13:20 14° WNW 06:15:34 10° W visible
01 Feb 7.2 04:50:09 10° NNE 04:54:28 72° ESE 04:58:47 10° S visible
